Regional Weather Roundup
Issued by NWS

Home | Current Version | Previous Version | Graphics & Text | Print | Product List | Glossary On
Versions: 1 2 3 4 5 6 7 8 9 10 11 12 13 14 15 16 17 18 19 20 21 22 23 24 25 26 27 28 29 30 31 32 33 34 35 36 37 38 39 40 41 42 43 44 45 46 47 48 49 50
000
ASUS43 KIND 222209
RWRIN

WEATHER ROUNDUP FOR INDIANA
NATIONAL WEATHER SERVICE INDIANAPOLIS IN
600 PM EDT TUE AUG 22 2017

NOTE: "FAIR" INDICATES FEW OR NO CLOUDS BELOW 12,000 FEET WITH NO
SIGNIFICANT WEATHER AND/OR OBSTRUCTIONS TO VISIBILITY.

* - STATION DOES NOT REPORT WEATHER SUCH AS PRECIPITATION OR FOG.

+ - STATION NOT QUALITY CONTROLLED BY THE NATIONAL WEATHER SERVICE.
    USE DATA WITH CAUTION...ESPECIALLY DEWPOINT AND RELATIVE
    HUMIDITY OBSERVATIONS.

INZ001>003-010>013-019-020-222300-
NORTHWEST INDIANA

CITY           SKY/WX    TMP DP  RH WIND       PRES   REMARKS
GARY /AIRPORT/ MOSUNNY   82  50  32 W21       29.90S
KNOX *+        PTSUNNY   73  63  68 N12       29.90R
LA PORTE +     MOSUNNY   77  60  56 NW18      29.91R
MICHIGAN CITY+ PTSUNNY   73  61  64 N15G21    29.92R
MONTICELLO +   MOSUNNY   77  64  64 W10G17    29.92R
RENSSELAER +   MOSUNNY   77  57  50 W10G16    29.92R
VALPARAISO     MOSUNNY   79  62  56 N6G18     29.91R

$$

LMZ046-743>745-222300-
SOUTHERN LAKE MICHIGAN

STATION/POSITION TIME  TEMP    WIND        PRES    WAVE
                       AIR SEA DIR/SP/G            HT
                 (UTC) (F)     (DEG/KT/KT) (MB)    (FT)
BURNS HARBOR     2140   75     350/ 12/ 17 1012.9S
MICHIGAN CITY    2140   75     320/ 20/ 21   N/A
5NW MICH CITY    2200   73 74   10/ 14/ 19   N/A     3

$$

INZ004-005-014>016-021>024-222300-
NORTH CENTRAL INDIANA

CITY           SKY/WX    TMP DP  RH WIND       PRES   REMARKS
ELKHART        MOSUNNY   73  59  60 NW12G17   29.90R
GOSHEN         MOSUNNY   75  58  55 NW17      29.89R
LOGANSPORT +   MOSUNNY   73  63  68 W10G20    29.92R
PERU/GRISSOM   MOSUNNY   78  65  63 NW18G24   29.89R
ROCHESTER +    PTSUNNY   77  64  65 NW9       29.90R
SOUTH BEND     PTSUNNY   73  63  70 NW17G31   29.90R
WARSAW +       MOSUNNY   75  61  60 NW12G22   29.89R

$$

INZ006>009-017-018-025>027-222300-
NORTHEAST INDIANA

CITY           SKY/WX    TMP DP  RH WIND       PRES   REMARKS
AUBURN +       SUNNY     75  59  57 W17G25    29.88R
FORT WAYNE     PTSUNNY   76  65  68 NW13      29.88R
HUNTINGTON +   CLOUDY    77  65  67 NW8       29.88R

$$

INZ028-029-035-036-043>045-051>053-222300-
WEST CENTRAL INDIANA

CITY           SKY/WX    TMP DP  RH WIND       PRES   REMARKS
GREENCASTLE +  MOSUNNY   79  63  57 W6        29.93S
LAFAYETTE      MOSUNNY   76  65  68 NW12G21   29.92R
TERRE HAUTE    MOSUNNY   81  65  58 W12       29.93S

$$

INZ030>032-037>040-046>048-054>057-064-065-222300-
CENTRAL INDIANA

CITY           SKY/WX    TMP DP  RH WIND       PRES   REMARKS
CP ATTERBURY + CLOUDY    81  64  57 NW8       29.92F
COLUMBUS       PTSUNNY   79  66  65 W12         N/A
FRANKFORT +    PTSUNNY   81  67  62 NW13      29.94R
GREENWOOD *+   PTSUNNY  N/A N/A N/A NW6       29.92S
INDIANAPOLIS   PTSUNNY   81  66  60 NW13      29.91S
-EAGLE CREEK   PTSUNNY   80  65  59 NW12G18   29.91R
KOKOMO +       PTSUNNY   78  67  68 W20       29.91R
MARION +       PTSUNNY   77  66  69 W16       29.91R
MT COMFORT *+  MOSUNNY   77  66  69 NW12      29.92R
SHELBYVILLE    MOSUNNY   81  65  58 W12       29.90S
ZIONSVILLE +   PTSUNNY   78  66  68 W14       29.93R

$$

INZ033-034-041-042-049-050-058-059-222300-
EAST CENTRAL INDIANA

CITY           SKY/WX    TMP DP  RH WIND       PRES   REMARKS
MUNCIE         CLOUDY    79  65  62 W8        29.91R
RICHMOND +     MOSUNNY   77  68  73 W12       29.93R

$$

INZ060-061-067>069-081>083-085>088-222300-
SOUTHWEST INDIANA

CITY           SKY/WX    TMP DP  RH WIND       PRES   REMARKS
EVANSVILLE     PTSUNNY   79  73  82 CALM      29.95F
HUNTINGBURG +  CLOUDY    78  72  81 W3        29.95F
WASHINGTON +   MOSUNNY   81  65  57 MISG      29.93S

$$

INZ062-063-066-070>080-084-089>092-222300-
SOUTH CENTRAL AND SOUTHEAST INDIANA

CITY           SKY/WX    TMP DP  RH WIND       PRES   REMARKS
BEDFORD +      MOSUNNY   79  64  61 NW7       29.93S
BLOOMINGTON    CLOUDY    81  66  60 W9        29.93S
MADISON *+     CLOUDY    73  70  88 CALM      29.94F
NORTH VERNON + PTSUNNY   77  68  73 NW6       29.93S
SEYMOUR +      CLOUDY    82  68  61 W7        29.92F

$$




USA.gov is the U.S. government's official web portal to all federal, state and local government web resources and services.